OBJECT K, 68989

Orbit data source: Space-Track

You're viewing an Uncataloged Satellite

Recently launched and/or uncataloged satellites may have evolving metadata. Metadata may include but not limited to: Owner, Maufacturer, Bus, Motor, and Mission.

OBJECT K, 68989 is a satellite in SSO that was launched on Sun, 03 May 2026 UTC via an FALCON 9 launch vehicle from the Air Force Western Test Range (AFWTR). Unknown objects in Earth's orbit typically refer to objects detected orbiting the Earth but have not yet been identified or cataloged. These objects could be anything from previously untracked satellites, spent rocket stages, debris from satellite collisions, or even natural meteoroids temporarily captured by Earth's gravity.

Loading next visibility...
Identifier
68989, 2026-100K
Orbit
SSO
Country
Flag of TBDTBD
Related business
None
Manufacturer
Unknown
Mission
Operational spacecraft
Bus & Motor
Unknown
Mass
Unknown
Launch date (UTC)
2026-05-03 (1 month ago)
Launch vehicle
FALCON 9
Launch site
Air Force Western Test Range (AFWTR)
Object type
Unknown
Shape & HBR
Unknown shape, 1.1 m
Radar Cross Section
Medium (>0.1 m² and <1 m²)

Expand to show TLE details & history
Last TLE update: 11 hours ago

TLE from 11 hours ago
0 OBJECT K
1 68989U 26100K   26168.63871885  .00001444  00000-0  15213-3 0  9996
2 68989  97.7395  66.0356 0007294 124.9243 235.2662 14.90868021  6769
Epoch: 2026-06-17T15:19Z
TLE epoch observation values (Epoch: 2026-06-17T15:19:45.308Z)
Latitude
0.00001°
Longitude
-69.79671°
Altitude
601.17 km
Speed
7.557 km/s
True Right ascension
04h 24m 08s
True Declination
0° 00' 00"
Sunlit
Object was in daylight at epoch
Visualization orbit readout
Latitude
Unknown
Longitude
Unknown
Altitude
Unknown
Speed
Unknown
Apparent Right ascension
Unknown
Apparent Declination
Unknown
Sunlit
N/A
Visualization observer readout
Local Sidereal Time
12:48:33
Azimuth
Unknown
Elevation
Unknown
Doppler factor
Unknown
Orbital elements
Apogee altitude
597.331 km
Perigee altitude
587.163 km
Semi-major axis
6,970.384 km
Eccentricity
0.00073
Inclination
97.7395°
RAAN
66.0356°
Arg. of periapsis
124.9243°
True anomaly
235.19755°
Mean anomaly
235.2662°
Eccentric anomaly
235.23187°
Mean motion
3.72956 °/min
Orbital period
96.53 mins
BSTAR
0.00015213
Loading maneuver chart data...
Computing Atmospheric mass density...
Loading historical data...
Loading historical data...
Loading historical data...
Loading historical data...
Loading historical data...
Loading historical data...
Loading historical data...

Documentation

Showing up to 5 results
|